Location: Mentone
(34.5413°N, 85.5351°W)
Time: 16:28:20
(UTC-05:00)

Cosmos 2150 Rocket - Visible Passes

Search period start: 28 March 2017 00:00
Search period end: 07 April 2017 00:00
Orbit: 750 x 807 km, 74.0° (Epoch: 27 March)

Date Brightness Start Highest point End Pass type
(mag) Time Alt. Az. Time Alt. Az. Time Alt. Az.
28 Mar 4.8 04:53:09 10° N 04:58:21 54° ENE 05:03:36 10° SSE visible
28 Mar 6.2 19:29:28 10° SW 19:33:57 30° WNW 19:38:29 10° N visible
29 Mar 5.7 04:19:40 10° N 04:24:26 33° ENE 04:29:15 10° SE visible
29 Mar 5.0 06:02:13 10° NW 06:06:31 25° W 06:10:52 10° SSW visible
30 Mar 6.5 03:46:28 10° NNE 03:50:26 21° ENE 03:54:24 10° ESE visible
30 Mar 4.4 05:27:50 10° NNW 05:32:51 42° WSW 05:37:54 10° S visible
31 Mar 7.0 03:13:59 10° NNE 03:16:19 13° ENE 03:18:40 10° E visible
31 Mar 3.9 04:53:48 10° NNW 04:59:07 71° WSW 05:04:29 10° S visible
31 Mar 7.0 19:32:11 10° W 19:35:02 15° WNW 19:37:53 10° NNW visible
01 Apr 4.3 04:19:58 10° NNW 04:25:18 70° ENE 04:30:41 10° SSE visible
02 Apr 5.2 03:46:22 10° N 03:51:25 42° ENE 03:56:31 10° SE visible
02 Apr 5.3 05:29:35 10° NW 05:33:20 20° W 05:37:08 10° SW visible
03 Apr 6.0 03:13:00 10° N 03:17:28 26° ENE 03:20:07 18° ESE visible
03 Apr 4.7 04:54:58 10° NW 04:59:42 32° W 05:00:14 32° WSW visible
04 Apr 6.6 02:40:03 10° NNE 02:43:24 17° ENE 02:43:47 16° ENE visible
04 Apr 4.8 04:20:47 10° NNW 04:24:08 36° NW 04:24:08 36° NW visible
05 Apr 5.4 03:46:51 10° NNW 03:49:24 29° NNW 03:49:24 29° NNW visible
06 Apr 6.0 03:13:07 10° N 03:15:08 23° N 03:15:08 23° N visible
